Regional Weather Roundup
Issued by NWS

Home | Current Version | Previous Version | Text Only | Print | Product List | Glossary On
Versions: 1 2 3 4 5 6 7 8 9 10 11 12 13 14 15 16 17 18 19 20 21 22 23 24 25 26 27 28 29 30 31 32 33 34 35 36 37 38 39 40 41 42 43 44 45 46 47 48 49 50
000
ASUS45 KABQ 060010
RWRNM
NEW MEXICO REGIONAL WEATHER ROUNDUP
NATIONAL WEATHER SERVICE ALBUQUERQUE NM
500 PM MST FRI FEB 05 2016

NOTE: "FAIR" MEANS FEW OR NO CLOUDS BELOW 12,000 FEET AGL WITH NO
       SIGNIFICANT WEATHER OR OBSTRUCTIONS TO VISION.

      THIS PRODUCT IS RELEASED AS TWO VERSIONS.  ONE VERSION NEAR
      THE TOP OF THE HOUR CONTAINING PRELIMINARY DATA FROM ALBUQUERQUE
      AND OTHER STATIONS.  A FINAL VERSION WITH ADDITIONAL DATA IS
      ISSUED ABOUT 10 MINUTES AFTER THE HOUR.

NMZ501-503-504-510>518-060100-
NORTHWEST PLATEAU/NORTHCENTRAL MOUNTAINS

CITY           SKY/WX    TMP DP  RH WIND       PRES   REMARKS
FARMINGTON     CLEAR     36  13  38 W15       30.38S WCI  27
6HR MIN TEMP:  23; 6HR MAX TEMP:  38;

LOS ALAMOS     CLEAR     31   6  34 E3        30.34R
SANTA FE       CLEAR     36   6  28 N10       30.33R WCI  28
6HR MIN TEMP:  30; 6HR MAX TEMP:  38;

TAOS           CLEAR     27   7  43 NW8       30.33S WCI  18
ANGEL FIRE     FAIR      21   1  42 W12       30.28R WCI   9

$$
NMZ402-403-502-505>509-060100-
WESTCENTRAL MOUNTAINS/SOUTHWEST MOUNTAINS

CITY           SKY/WX    TMP DP  RH WIND       PRES   REMARKS
GALLUP         CLEAR     37   5  26 N7        30.40S WCI  32
6HR MIN TEMP:  28; 6HR MAX TEMP:  39; 6HR PCP: TRACE;

GRANTS         CLEAR     36   4  26 NW14      30.39S WCI  27
SILVER CITY      N/A     48  -8   9 N9        30.35R

$$
NMZ407-409-411-412-060100-
SOUTHERN DESERTS

CITY           SKY/WX    TMP DP  RH WIND       PRES   REMARKS
LORDSBURG      FAIR      52  14  22 SE9       30.32S
DEMING         CLEAR     51   4  14 E12       30.34R
6HR MIN TEMP:  45; 6HR MAX TEMP:  55;

LAS CRUCES     CLEAR     49  -4  11 N14       30.36R
HOLLOMAN AFB   CLEAR     48   4  16 NW18      30.33R
ALAMOGORDO     CLEAR     48   3  15 NW17      30.33R
T OR C         CLEAR     48  -2  12 NE14      30.34R
6HR MIN TEMP:  41; 6HR MAX TEMP:  50;


$$
NMZ519>523-060100-
CENTRAL VALLEYS/CENTRAL HIGHLANDS

CITY           SKY/WX    TMP DP  RH WIND       PRES   REMARKS
ALBUQUERQUE    CLEAR     41   2  19 N12       30.36S
6HR MIN TEMP:  32; 6HR MAX TEMP:  43;

DOUBLE EAGLE   CLEAR     37   5  25 NW13      30.37R WCI  29
MORIARTY ARPT  FAIR      36   4  25 NW13      30.34S WCI  28
6HR MIN TEMP:  33; 6HR MAX TEMP:  39;

CLINES CORNERS CLEAR     30   9  41 NW17      30.28R WCI  18
6HR MIN TEMP:  25; 6HR MAX TEMP:  33;

BELEN          FAIR      43  -2  15 N9        30.36S
6HR MIN TEMP:  36; 6HR MAX TEMP:  45;

SOCORRO        FAIR      45  -1  14 N9        30.36S
6HR MIN TEMP:  36; 6HR MAX TEMP:  46;


$$
NMZ524>526-539-540-060100-
SOUTHCENTRAL MOUNTAINS

CITY           SKY/WX    TMP DP  RH WIND       PRES   REMARKS
RUIDOSO          N/A     34   0  23 N10       30.33S WCI  26

$$
NMZ527>531-060100-
NORTHEAST HIGHLANDS/NORTHEAST PLAINS

CITY           SKY/WX    TMP DP  RH WIND       PRES   REMARKS
LAS VEGAS      CLEAR     33   5  30 NW7       30.28R WCI  27
6HR MIN TEMP:  31; 6HR MAX TEMP:  37; 6HR PCP: TRACE;

RATON          CLEAR     31  13  47 NE14      30.25R WCI  21
6HR MIN TEMP:  30; 6HR MAX TEMP:  36;

CLAYTON        CLEAR     34  16  47 N15       30.29R WCI  24
6HR MIN TEMP:  33; 6HR MAX TEMP:  40;


$$
NMZ532>537-060100-
EASTCENTRAL PLAINS

CITY           SKY/WX    TMP DP  RH WIND       PRES   REMARKS
TUCUMCARI      PTCLDY    43  14  31 NE20G25   30.31R
6HR MIN TEMP:  41; 6HR MAX TEMP:  48;

CANNON AFB     NOT AVBL
CLOVIS AIRPORT PTCLDY    39  18  41 N18G30    30.31R WCI  30

$$
NMZ028-029-538-060100-
SOUTHEAST PLAINS

CITY           SKY/WX    TMP DP  RH WIND       PRES   REMARKS
ROSWELL        CLEAR     50   7  17 N17G25    30.32R
6HR MIN TEMP:  49; 6HR MAX TEMP:  54;

ARTESIA        CLEAR     50   9  18 N18G24    30.32R
CARLSBAD       CLEAR     51   3  14 NW25G33   30.30R
6HR MIN TEMP:  46; 6HR MAX TEMP:  54;

HOBBS          MOCLDY    48   9  20 NW18G30   30.29R


$$



USA.gov is the U.S. government's official web portal to all federal, state and local government web resources and services.